Wind_Speed
3 4 5 5 5 7 9 10 11 10 11 11 12 12 11 11 11 12 12 12 12 12 11 11 11 11 11 12 12 12 12 12 13 13 13 13 13 14 15 15 16 16 16 16
5 6 7 7 7 8 10 12 12 12 12 13 13 13 13 13 13 13 13 13 13 12 12 12 12 12 12 12 12 13 12 13 13 13 13 13 13 14 14 14 15 15 15 15
8 9 9 9 10 11 11 13 14 13 13 14 14 14 14 14 14 15 15 14 14 13 13 13 13 13 13 13 13 14 13 13 14 14 13 13 13 13 14 14 14 14 14 14
11 11 11 11 13 13 14 14 14 15 15 15 15 15 16 16 16 16 16 16 15 15 15 15 15 15 14 14 14 15 15 14 14 14 14 14 13 13 13 13 13 13 13 13
14 14 13 14 15 17 17 17 16 16 17 17 17 18 18 18 18 18 18 17 17 16 16 16 16 16 16 16 16 16 16 15 15 15 15 14 14 13 13 13 13 13 13 12
17 17 17 17 18 19 19 19 18 19 19 20 20 20 19 20 20 20 19 19 18 18 18 18 18 18 17 17 17 17 17 16 16 16 15 15 14 14 13 13 13 13 13 12
21 21 20 19 19 20 21 21 21 22 22 22 22 22 22 22 22 22 22 21 20 20 20 20 20 20 19 19 19 18 18 18 17 17 16 16 15 14 14 13 13 13 13 13
24 24 23 23 23 23 24 24 24 24 24 25 25 25 24 24 24 24 24 24 23 23 22 22 22 21 21 21 20 20 20 19 19 18 17 17 16 16 15 14 14 13 13 13
27 27 26 26 26 27 27 27 27 27 27 27 27 27 27 27 27 26 26 27 27 26 25 25 24 24 23 23 22 22 21 21 20 20 19 18 18 17 16 16 15 15 14 14
30 30 29 30 30 30 30 31 31 30 30 30 29 29 29 29 30 30 29 29 29 29 28 27 27 26 26 25 24 24 23 23 22 22 21 20 20 19 18 17 17 16 16 15
33 33 33 33 33 34 33 33 33 33 34 33 32 31 31 31 31 31 31 31 31 31 31 30 30 29 28 28 27 26 25 25 24 24 23 22 22 21 20 19 19 18 17 17
36 35 37 35 35 36 36 36 35 35 35 36 36 35 34 34 34 33 33 33 34 33 33 33 32 31 30 30 29 28 28 27 27 26 25 24 23 23 22 21 21 20 19 19
38 38 39 38 37 37 38 38 38 38 37 37 37 37 36 36 36 36 35 35 35 35 35 35 34 34 33 33 32 31 30 30 29 28 28 27 26 25 24 23 23 22 21 20
40 40 40 39 39 39 39 40 40 41 41 40 40 39 38 38 37 38 37 37 37 36 37 37 36 36 36 35 34 33 32 32 31 31 30 29 28 27 26 25 24 24 23 22
40 40 40 40 40 40 40 41 41 41 42 42 42 41 40 40 39 39 39 39 38 38 37 37 37 38 37 37 36 35 35 34 34 33 32 32 31 30 29 28 27 26 25 25
41 41 41 41 41 42 42 42 42 42 42 43 43 43 43 42 41 41 41 40 39 38 37 37 37 38 39 38 38 37 37 36 36 35 34 34 33 32 31 30 29 28 28 27
43 42 43 43 43 43 43 43 43 43 43 43 44 44 44 43 42 41 41 41 40 39 38 38 38 39 39 39 39 39 38 38 38 37 36 36 35 34 33 32 31 30 30 29
44 44 44 44 44 43 43 44 44 44 44 44 44 44 43 43 42 41 40 40 40 39 39 39 39 39 39 39 39 39 40 39 39 38 38 38 37 36 35 34 33 32 31 31
45 45 45 45 45 45 45 45 44 44 44 44 44 44 43 43 42 42 41 40 40 39 39 39 40 40 40 39 39 40 40 40 40 39 39 39 39 38 37 35 34 34 33 33
45 45 45 46 46 46 46 45 44 44 44 44 44 44 43 43 42 42 41 40 40 39 39 39 39 39 39 39 39 39 40 40 40 39 39 39 39 39 38 38 37 36 35 35
44 45 45 45 45 45 45 45 44 43 43 43 43 43 42 42 42 41 40 40 39 39 39 39 39 39 39 38 39 39 40 40 40 39 40 40 39 39 39 39 39 38 37 37
44 44 44 44 45 45 44 44 44 43 43 43 42 41 41 41 41 41 40 40 39 39 39 39 40 40 40 40 39 40 40 40 40 40 39 39 39 39 39 39 39 39 39 38
43 43 44 44 44 43 43 43 43 43 42 42 42 42 41 41 41 41 41 40 40 40 41 41 41 41 41 40 39 39 40 40 40 40 39 39 39 39 39 39 39 40 40 39
43 42 42 42 42 42 42 42 42 42 42 42 41 41 41 41 41 41 41 40 41 41 41 41 42 42 42 41 40 40 40 39 39 39 39 39 39 39 39 39 38 39 39 39
41 41 41 41 40 40 41 41 42 41 41 41 40 39 39 40 39 39 40 40 40 40 41 41 42 42 42 42 41 41 40 40 40 40 39 39 39 39 39 38 38 39 39 39
40 40 40 40 40 39 40 40 40 39 40 39 38 38 38 38 38 38 38 39 39 39 39 40 41 41 41 41 41 41 41 41 41 41 40 39 39 39 39 38 38 39 40 40
39 39 38 38 38 38 38 38 37 37 37 37 37 37 37 37 37 37 37 38 38 38 38 39 39 39 40 40 40 40 40 40 40 40 40 39 39 38 38 39 39 40 40 40
Wind_Direction
290 273 274 279 287 281 271 268 268 274 275 275 278 282 286 285 285 287 290 292 289 285 281 278 274 273 276 280 285 291 298 305 311 316 320 325 330 334 338 342 345 347 350 354
290 283 280 281 282 281 278 276 274 276 279 279 279 283 283 284 285 285 284 286 286 282 279 278 275 272 273 277 281 286 293 299 305 311 315 319 324 328 332 336 340 343 347 350
286 287 284 279 279 277 279 280 281 282 282 282 282 284 284 281 282 282 279 280 282 280 277 275 275 273 273 275 278 283 288 294 299 304 308 312 317 322 327 330 335 340 344 348
283 282 282 281 279 279 280 280 280 279 279 281 282 280 280 280 280 279 277 277 277 276 275 275 274 274 275 275 276 279 284 288 293 297 302 307 311 316 321 324 329 334 338 343
286 283 281 280 279 280 281 281 280 279 278 279 280 279 279 279 279 278 278 276 275 274 272 274 274 274 274 275 276 278 281 285 288 292 296 301 305 310 314 318 322 326 330 335
286 285 284 283 281 280 278 277 277 276 276 277 277 278 279 277 276 276 276 277 276 273 271 271 273 273 273 273 274 276 278 281 284 287 290 294 298 303 308 311 315 319 322 326
286 286 285 284 282 280 277 276 274 274 275 276 276 277 276 275 274 274 274 275 274 273 271 270 270 271 271 271 271 272 274 276 279 282 285 287 290 295 299 303 307 311 314 317
286 285 284 283 281 279 278 277 277 276 276 276 275 275 275 274 272 271 272 272 272 271 270 270 270 271 270 269 269 269 270 272 275 277 280 282 285 288 292 295 299 303 307 309
285 284 283 281 278 278 278 279 279 278 278 277 275 274 274 274 272 271 269 269 269 269 268 268 269 269 270 268 267 267 267 269 271 273 275 277 280 283 285 288 291 295 299 302
282 282 280 277 275 275 276 277 277 277 276 276 275 274 274 273 273 272 270 268 267 266 267 267 267 266 267 267 266 266 266 267 268 269 271 273 276 278 281 283 286 288 290 294
280 280 277 276 275 275 275 274 274 274 274 274 274 273 272 272 271 270 270 269 267 266 265 265 265 266 266 265 265 265 265 265 266 267 268 270 272 275 277 279 281 283 285 287
279 278 277 277 275 274 273 273 273 272 272 272 273 273 272 271 270 269 268 268 267 266 265 264 264 264 265 264 263 263 263 263 263 264 265 266 268 270 273 275 277 278 280 283
278 277 277 277 275 274 273 273 272 272 272 271 270 271 271 271 270 270 269 268 266 265 264 263 262 262 262 262 262 261 261 261 260 261 262 263 265 267 269 271 273 274 276 278
277 277 276 276 275 274 274 274 274 272 272 271 271 271 270 270 270 270 269 269 267 265 264 263 261 261 261 260 259 259 258 259 259 259 259 261 262 263 265 267 270 272 273 275
276 276 277 276 275 275 275 274 274 273 272 271 271 271 271 271 270 270 269 268 268 266 265 263 261 260 260 259 258 258 257 257 257 257 258 259 260 261 262 264 267 269 271 272
274 275 276 276 276 275 275 275 274 274 273 272 272 272 271 271 270 269 268 268 267 265 264 262 260 259 258 258 257 257 257 256 255 256 256 257 258 260 260 262 263 266 268 270
273 274 274 275 276 275 275 275 275 274 273 273 272 272 272 271 270 269 267 266 266 265 263 261 259 258 257 257 257 256 256 256 255 254 255 256 257 258 259 260 261 263 265 267
274 275 274 275 275 275 274 274 274 274 273 273 272 272 271 271 269 268 267 265 264 263 262 260 258 257 256 256 256 256 255 255 255 254 254 254 255 257 258 259 260 261 263 265
276 275 275 275 275 276 276 276 276 275 274 274 273 272 271 270 269 268 267 265 262 261 260 259 258 257 256 255 255 255 255 255 255 255 254 254 254 255 256 258 259 260 261 262
274 275 275 275 275 275 276 276 276 276 275 274 273 272 270 269 269 268 267 265 261 260 260 260 258 256 255 255 255 255 255 255 254 254 254 254 254 255 256 257 258 259 260 261
274 274 275 275 276 276 276 275 275 275 275 274 273 271 270 269 267 266 265 264 262 261 260 259 258 256 254 253 253 254 254 254 254 254 254 254 254 255 256 256 257 258 259 260
274 274 275 275 276 275 275 275 275 276 275 273 272 270 269 268 266 265 264 263 261 259 259 258 257 255 254 252 252 253 253 253 254 254 253 253 254 255 256 256 257 258 260 260
275 274 275 275 275 275 274 275 275 275 274 272 270 269 268 267 265 264 263 262 261 258 258 258 257 255 254 254 253 253 252 252 253 253 253 254 254 254 255 256 257 258 259 260
275 275 275 275 274 275 274 274 274 274 273 272 271 269 268 267 265 263 263 262 261 259 258 258 257 255 255 254 253 253 252 252 252 253 253 253 254 254 254 255 256 257 259 260
276 275 275 275 275 275 275 274 274 272 271 271 270 269 268 267 266 264 263 263 262 260 258 256 255 255 255 255 254 253 252 251 251 251 252 252 253 254 255 256 256 257 258 260
276 276 275 275 276 277 276 275 273 271 270 269 269 269 268 267 266 264 263 262 262 260 258 256 255 255 254 254 253 252 251 250 249 249 249 250 251 253 254 254 255 257 258 259
277 277 277 277 277 278 278 276 273 271 269 268 269 269 268 267 266 265 264 263 262 261 259 257 256 255 254 253 252 252 252 250 249 249 249 250 251 252 254 256 257 258 258 259
Height
5818 5818 5817 5817 5817 5817 5816 5816 5816 5816 5816 5816 5815 5815 5815 5814 5814 5813 5813 5812 5812 5811 5811 5811 5810 5810 5809 5808 5808 5806 5805 5803 5801 5799 5797 5795 5792 5789 5786 5784 5780 5777 5774 5770
5816 5816 5815 5815 5815 5814 5814 5813 5813 5813 5813 5812 5812 5812 5811 5811 5810 5810 5809 5809 5808 5808 5807 5807 5807 5806 5806 5805 5804 5803 5802 5800 5799 5797 5794 5792 5790 5787 5785 5782 5779 5776 5773 5770
5814 5813 5813 5813 5812 5811 5810 5810 5810 5809 5810 5809 5808 5808 5807 5807 5806 5806 5805 5805 5805 5804 5803 5803 5803 5802 5802 5801 5800 5799 5798 5797 5795 5794 5792 5790 5788 5785 5783 5780 5777 5775 5772 5769
5810 5811 5810 5811 5808 5807 5806 5806 5805 5805 5805 5804 5804 5803 5803 5802 5802 5801 5801 5800 5800 5800 5799 5799 5798 5798 5797 5797 5796 5795 5794 5793 5792 5790 5788 5787 5785 5783 5781 5778 5776 5773 5770 5768
5806 5805 5806 5806 5804 5802 5801 5801 5800 5800 5799 5799 5798 5798 5797 5797 5796 5796 5796 5795 5795 5795 5795 5794 5794 5793 5793 5792 5791 5791 5790 5789 5787 5786 5785 5783 5782 5780 5778 5776 5773 5771 5769 5767
5800 5799 5800 5801 5799 5797 5797 5795 5795 5794 5794 5793 5792 5792 5792 5791 5791 5790 5790 5790 5789 5789 5789 5789 5788 5788 5788 5787 5786 5786 5785 5784 5783 5782 5781 5779 5778 5777 5775 5773 5771 5769 5767 5765
5794 5793 5793 5793 5792 5792 5791 5791 5789 5787 5787 5786 5786 5785 5785 5784 5784 5784 5783 5783 5783 5783 5783 5783 5782 5782 5782 5782 5781 5781 5780 5779 5778 5778 5777 5775 5774 5773 5771 5770 5768 5766 5764 5762
5787 5786 5788 5785 5784 5783 5782 5781 5780 5780 5779 5779 5778 5777 5777 5777 5776 5776 5776 5776 5776 5776 5776 5776 5776 5776 5776 5775 5775 5774 5774 5774 5773 5772 5772 5771 5770 5769 5767 5766 5765 5763 5761 5760
5780 5780 5778 5776 5775 5774 5773 5772 5771 5771 5770 5770 5769 5769 5768 5768 5767 5767 5767 5768 5768 5768 5769 5769 5768 5768 5768 5768 5768 5768 5768 5768 5767 5767 5766 5765 5765 5764 5763 5762 5761 5759 5758 5756
5769 5769 5768 5767 5765 5764 5763 5762 5761 5761 5761 5760 5760 5760 5759 5759 5758 5758 5758 5759 5759 5759 5760 5760 5760 5760 5760 5760 5760 5760 5760 5760 5760 5760 5760 5759 5759 5758 5757 5757 5756 5755 5754 5752
5759 5759 5757 5757 5755 5754 5753 5752 5751 5751 5750 5750 5749 5749 5749 5749 5749 5749 5749 5749 5749 5749 5750 5750 5751 5751 5751 5752 5752 5752 5752 5753 5753 5753 5753 5753 5752 5752 5752 5751 5750 5749 5749 5747
5749 5748 5745 5746 5745 5743 5742 5741 5740 5739 5739 5738 5738 5738 5738 5738 5738 5738 5738 5738 5739 5739 5740 5740 5740 5741 5742 5742 5743 5743 5743 5744 5744 5745 5745 5745 5745 5745 5745 5745 5744 5743 5743 5742
5736 5735 5733 5733 5733 5732 5730 5729 5728 5727 5727 5726 5726 5726 5726 5726 5726 5726 5726 5727 5727 5728 5728 5729 5729 5730 5731 5732 5732 5733 5734 5735 5735 5736 5737 5737 5737 5737 5738 5738 5737 5737 5736 5736
5723 5721 5721 5721 5720 5719 5717 5716 5715 5715 5714 5714 5714 5713 5713 5713 5713 5713 5714 5714 5714 5715 5716 5717 5718 5719 5719 5720 5721 5722 5723 5725 5725 5726 5727 5728 5728 5729 5729 5729 5729 5729 5729 5729
5710 5708 5708 5707 5706 5706 5705 5703 5702 5702 5701 5701 5700 5700 5700 5700 5700 5700 5700 5700 5701 5701 5702 5704 5705 5706 5707 5708 5709 5711 5712 5713 5714 5716 5717 5718 5719 5719 5720 5720 5721 5721 5721 5721
5697 5695 5694 5693 5693 5692 5691 5690 5689 5688 5687 5687 5686 5686 5686 5686 5686 5686 5686 5686 5687 5688 5689 5690 5692 5693 5694 5695 5697 5698 5700 5702 5703 5704 5706 5707 5708 5709 5710 5711 5711 5712 5712 5712
5683 5682 5681 5680 5679 5678 5677 5676 5675 5674 5673 5672 5672 5671 5671 5671 5671 5672 5672 5672 5673 5674 5675 5676 5678 5679 5680 5682 5684 5685 5687 5689 5690 5692 5694 5695 5697 5698 5699 5700 5701 5702 5702 5703
5668 5667 5667 5666 5665 5663 5662 5661 5660 5659 5658 5658 5657 5656 5656 5656 5656 5657 5658 5658 5659 5660 5661 5662 5663 5665 5667 5669 5670 5672 5674 5676 5677 5679 5681 5683 5685 5686 5688 5689 5690 5691 5692 5692
5653 5652 5652 5651 5649 5648 5647 5647 5645 5644 5643 5642 5642 5641 5641 5641 5641 5642 5643 5643 5644 5646 5647 5648 5649 5651 5653 5655 5657 5658 5660 5662 5664 5666 5668 5670 5672 5674 5676 5677 5678 5679 5680 5681
5638 5637 5636 5635 5634 5633 5632 5631 5630 5629 5628 5627 5626 5626 5626 5627 5627 5627 5628 5629 5630 5631 5633 5634 5635 5637 5639 5641 5643 5645 5647 5649 5651 5653 5655 5657 5659 5661 5663 5665 5666 5667 5669 5670
5623 5622 5621 5620 5619 5618 5617 5616 5615 5614 5613 5612 5612 5611 5612 5612 5612 5613 5613 5615 5616 5617 5619 5620 5621 5623 5625 5628 5630 5632 5633 5635 5637 5639 5641 5644 5646 5648 5650 5652 5653 5655 5656 5657
5608 5607 5606 5605 5604 5603 5602 5600 5600 5599 5598 5598 5597 5597 5597 5597 5598 5598 5599 5601 5602 5603 5604 5606 5608 5610 5612 5614 5616 5618 5620 5622 5624 5626 5628 5630 5632 5634 5636 5638 5640 5642 5643 5644
5593 5592 5591 5590 5589 5588 5587 5586 5585 5584 5583 5583 5582 5582 5583 5583 5583 5584 5586 5587 5587 5589 5590 5592 5594 5596 5597 5599 5602 5604 5606 5608 5610 5612 5614 5616 5618 5621 5623 5625 5627 5628 5630 5631
5578 5577 5576 5575 5574 5573 5572 5571 5570 5569 5569 5568 5568 5568 5568 5569 5570 5570 5571 5572 5573 5574 5576 5578 5579 5581 5583 5585 5588 5590 5592 5594 5597 5599 5600 5603 5605 5607 5609 5611 5613 5615 5616 5618
5563 5562 5561 5560 5559 5558 5557 5557 5556 5555 5554 5554 5554 5554 5554 5554 5556 5557 5557 5558 5559 5560 5561 5563 5565 5566 5568 5571 5573 5576 5578 5580 5583 5585 5587 5589 5591 5593 5595 5597 5599 5602 5603 5605
5549 5548 5547 5546 5545 5544 5543 5542 5541 5541 5540 5540 5540 5540 5541 5541 5541 5542 5543 5544 5544 5546 5547 5549 5550 5552 5554 5556 5559 5561 5563 5566 5568 5570 5573 5575 5577 5579 5582 5584 5586 5588 5590 5591
5536 5535 5534 5533 5532 5531 5530 5529 5528 5528 5527 5527 5527 5528 5527 5528 5528 5528 5529 5530 5531 5532 5533 5535 5537 5538 5540 5542 5545 5547 5549 5552 5554 5557 5559 5562 5564 5566 5568 5570 5572 5574 5576 5577